Find ATS 5

NORAD ID: 4068 Int'l Des: 1969-069 Owner: GSFC Country: US operational
HEOCIRCULAR

Current View

Loading 3D Globe...

About ATS 5

ATS 5 (NORAD 4068) is a satellite by GSFC of US. It operates in HEO, CIRCULAR orbit

Upcoming Passes

Passes for default location (London). Set your location on the main map for personalized predictions.

Altitude History

Loading altitude history...

Two-Line Element Set

1 4068U 69069A 26195.14436174 .00000088 00000-0 00000+0 0 9996
2 4068 0.2917 139.3134 0005206 136.3219 134.1011 0.99487341 46591
Epoch: Jul 14, 2026 • Age: 12 hours

Current Status

Altitude 35993.1 km
Apogee / Perigee N/A
Velocity 3.07 km/s
Sub-Earth Point 0.29°N, 64.33°E
Type other

Most Searched